User: anonymous   Login
Location: Aiyekoto
(8.4333°N, 4.3667°E)
Time: 03:57:16
(UTC+00:00)
Language:

CZ-3 R/B - Orbit

View from above orbital plane
View from above orbital plane
View from above satellite
View from above satellite

Ground track
Ground track

The orbit data is extracted from the following two-line orbital elements,

1 29517U 06048B   21138.95462107  .00000357  00000-0  10509-3 0  9994
2 29517  28.3595  70.3209 4207286 313.5769  18.3677  6.87711074265895
Epoch (UTC): 18 May 2021 22:54:39
Eccentricity: 0.4207286
inclination: 28.3595°
perigee height: 388 km
apogee height: 10217 km
right ascension of ascending node: 70.3209°
argument of perigee: 313.5769°
revolutions per day: 6.87711074
mean anomaly at epoch: 18.3677°
orbit number at epoch: 26589

The dashed part of the orbit path shows where the satellite is in the earth's shadow,  

DLR